Location: *
(18.5200°S, 46.4500°E)
Time: 00:33:03
(UTC+00:00)

YAOGAN 1 - Pass Details

Date: 19 July 2019
Orbit: 619 x 621 km, 98.0° (Epoch: 20 August)

Event Time Altitude Azimuth Distance (km) Brightness Sun altitude
Exits shadow 16:04:46 22° 174° (S) 1,365 4.1 -21.0°
Maximum altitude 16:07:31 77° 257° (WSW) 643 2.6 -21.6°
Drops below altitude 10° 16:11:49 10° 343° (NNW) 1,981 5.5 -22.6°
Sets 16:14:00 0° 345° (NNW) 2,880 6.4 -23.1°
